Location: La Comballaz
(46.3780°N, 7.0817°E)
Time: 07:06:03
(UTC+00:00)

ISS - Visible Passes

Search period start: 07 December 2022 00:00
Search period end: 17 December 2022 00:00
Orbit: 414 x 420 km, 51.6° (Epoch: 07 December)

Date Brightness Start Highest point End Pass type
(mag) Time Alt. Az. Time Alt. Az. Time Alt. Az.
07 Dec -1.7 16:52:47 10° W 16:55:44 29° SW 16:58:40 10° SSE visible
09 Dec -0.3 16:54:20 10° WSW 16:55:43 12° SW 16:57:06 10° SSW visible
16 Dec -0.7 06:24:48 10° S 06:27:20 20° SE 06:29:52 10° E visible
